TimeAKST,TemperatureF,Dew PointF,Humidity,Sea Level PressureIn,VisibilityMPH,Wind Direction,Wind SpeedMPH,Gust SpeedMPH,PrecipitationIn,Events,Conditions,WindDirDegrees,DateUTC
12:53 AM,14.0,10.9,88,29.54,10.0,Calm,Calm,-,N/A,,Scattered Clouds,0,2012-02-11 09:53:00
1:53 AM,16.0,14.0,92,29.53,10.0,North,5.8,-,N/A,,Scattered Clouds,360,2012-02-11 10:53:00
2:53 AM,14.0,10.9,88,29.52,10.0,NNE,3.5,-,N/A,,Scattered Clouds,30,2012-02-11 11:53:00
3:53 AM,10.0,8.1,92,29.50,10.0,Calm,Calm,-,N/A,,Scattered Clouds,0,2012-02-11 12:53:00
4:53 AM,8.1,6.1,92,29.47,10.0,NE,5.8,-,N/A,,Scattered Clouds,50,2012-02-11 13:53:00
5:53 AM,9.0,7.0,92,29.44,10.0,NNE,3.5,-,N/A,,Scattered Clouds,30,2012-02-11 14:53:00
6:53 AM,9.0,6.1,88,29.42,10.0,NE,8.1,-,N/A,,Mostly Cloudy,40,2012-02-11 15:53:00
7:53 AM,12.9,10.0,88,29.41,10.0,NE,5.8,-,N/A,,Mostly Cloudy,40,2012-02-11 16:53:00
8:53 AM,8.1,6.1,92,29.38,10.0,NNE,6.9,-,N/A,,Mostly Cloudy,30,2012-02-11 17:53:00
9:53 AM,9.0,6.1,88,29.37,10.0,NNE,5.8,-,N/A,,Mostly Cloudy,20,2012-02-11 18:53:00
10:53 AM,19.0,10.9,71,29.34,10.0,NE,9.2,-,N/A,,Mostly Cloudy,40,2012-02-11 19:53:00
11:53 AM,21.9,12.0,66,29.33,10.0,ENE,5.8,-,N/A,,Mostly Cloudy,70,2012-02-11 20:53:00
12:53 PM,23.0,12.0,63,29.31,10.0,ENE,5.8,-,N/A,,Mostly Cloudy,70,2012-02-11 21:53:00
1:53 PM,26.1,14.0,60,29.30,10.0,North,4.6,-,N/A,,Mostly Cloudy,10,2012-02-11 22:53:00
2:53 PM,19.9,12.9,74,29.28,10.0,NNE,3.5,-,N/A,,Mostly Cloudy,30,2012-02-11 23:53:00
3:53 PM,19.9,15.1,81,29.25,10.0,Calm,Calm,-,N/A,,Mostly Cloudy,0,2012-02-12 00:53:00
4:53 PM,23.0,17.1,78,29.24,10.0,NE,3.5,-,N/A,,Mostly Cloudy,40,2012-02-12 01:53:00
5:53 PM,25.0,16.0,69,29.23,10.0,Calm,Calm,-,N/A,,Mostly Cloudy,0,2012-02-12 02:53:00
6:53 PM,23.0,18.0,81,29.22,10.0,NE,3.5,-,N/A,,Mostly Cloudy,50,2012-02-12 03:53:00
7:53 PM,17.1,15.1,92,29.20,10.0,NE,3.5,-,N/A,,Mostly Cloudy,50,2012-02-12 04:53:00
8:53 PM,15.1,12.0,88,29.19,10.0,NNE,4.6,-,N/A,,Mostly Cloudy,30,2012-02-12 05:53:00
9:53 PM,17.1,14.0,88,29.18,10.0,Calm,Calm,-,N/A,,Mostly Cloudy,0,2012-02-12 06:53:00
10:53 PM,17.1,14.0,88,29.18,10.0,Calm,Calm,-,N/A,,Mostly Cloudy,0,2012-02-12 07:53:00
11:53 PM,18.0,15.1,88,29.18,10.0,Calm,Calm,-,N/A,,Mostly Cloudy,0,2012-02-12 08:53:00